ANIK F3

Last updated on Sat Apr 13 2024 01:02:37 GMT+0100 (British Summer Time)

1 31102U 07009A 24103.56875997 -.00000009 00000+0 00000+0 0 9997 2 31102 0.0153 188.0796 0002213 193.7543 265.4370 1.00271535 38582
UTC large
Height (km)
Speed (km/s)
/
Latitude / Longitude
Inclination (degrees)
Orbital Period (minutes)
Azimuth
Elevation
Range (km)
Doppler Factor

Next 0 passes for location: London (51.5072 / 0.1276)

Sorry there are no passes over London.